User: anonymous   Login
Location: Unspecified
(0.0000°N, 0.0000°E)
Time: 19:32:40
(UTC+01:00)
Language:

ADEOS II - Orbit

View from above orbital plane
View from above orbital plane
View from above satellite
View from above satellite

Ground track
Ground track

The orbit data is extracted from the following two-line orbital elements,

1 27597U 02056A   16036.74330572  .00000123  00000-0  67011-4 0  9995
2 27597  98.3085  23.3038 0001526  45.0663  57.6997 14.27177323684460
Epoch (UTC): 05 February 2016 17:50:21
Eccentricity: 0.0001526
inclination: 98.3085°
perigee height: 800 km
apogee height: 802 km
right ascension of ascending node: 23.3038°
argument of perigee: 45.0663°
revolutions per day: 14.27177323
mean anomaly at epoch: 57.6997°
orbit number at epoch: 68446

The dashed part of the orbit path shows where the satellite is in the earth's shadow,  

DLR